Tracking 24120 objects as of 5-Dec-2021
HD Live streaming from Space Station
objects crossing your sky now

THORAD AGENA D DEB

Track THORAD AGENA D DEB now!
10-day predictions


NORAD ID: 4193
Int'l Code: 1969-082BG
Perigee: 694.7 km
Apogee: 838.6 km
Inclination: 69.9 °
Period: 100.0 minutes
Semi major axis: 7137 km
RCS: 0.0571 m2 (small)
Launch date: September 30, 1969
Source: United States (US)
Launch site: AIR FORCE WESTERN TEST RANGE (AFWTR)

Note: This is SATELLITE DEBRIS
aabbcc
Your satellite tracking list
Your tracking list is empty




NASA's NSSDC Master Catalog

Two Line Element Set (TLE):
1  4193U 69082BG  21339.37733027  .00002002  00000-0  62045-3 0  9996
2  4193  69.9331 319.9362 0100800 123.7226 237.3560 14.39698754652246
Source of the keplerian elements: AFSPC